Date,TemperatureHighF,TemperatureAvgF,TemperatureLowF,DewpointHighF,DewpointAvgF,DewpointLowF,HumidityHigh,HumidityAvg,HumidityLow,PressureMaxIn,PressureMinIn,WindSpeedMaxMPH,WindSpeedAvgMPH,GustSpeedMaxMPH,PrecipitationSumIn
2013-3-1,42.3,33.0,27.7,31.5,26.6,22.8,87,78,62,30.43,30.33,7,1,14,0.00
2013-3-2,58.1,39.6,25.7,41.2,30.8,21.4,86,72,52,30.42,30.17,7,1,13,0.00
2013-3-3,58.3,44.1,33.6,42.4,34.7,28.6,82,70,51,30.17,29.77,6,1,10,0.00
2013-3-4,47.8,38.2,26.8,34.9,24.7,10.6,77,60,40,30.33,29.78,11,5,21,0.00
2013-3-5,45.1,31.8,22.3,18.7,14.7,11.8,66,51,30,30.47,30.33,10,4,18,0.00
2013-3-6,48.9,33.0,21.7,28.6,21.5,14.5,76,64,45,30.45,30.12,13,4,20,0.00
2013-3-7,53.4,37.4,26.2,34.2,27.4,21.0,83,69,47,30.18,30.10,13,4,16,0.00
2013-3-8,55.0,43.5,32.7,48.4,35.5,26.6,85,74,58,30.17,29.84,13,6,63,0.00
2013-3-9,53.4,42.3,31.3,49.8,37.8,26.8,90,84,78,30.05,29.71,21,10,44,0.00
2013-3-10,32.7,26.9,20.3,28.6,18.9,13.1,91,72,53,30.23,30.05,22,12,44,0.00
2013-3-11,51.6,33.4,17.8,32.5,22.2,12.2,82,66,40,30.22,30.04,12,4,22,0.00
2013-3-12,48.9,38.1,31.1,30.2,20.3,13.6,80,53,26,30.45,30.21,17,6,34,0.00
2013-3-13,67.8,44.6,28.6,37.9,24.5,14.4,60,47,27,30.45,30.27,14,2,23,0.00
2013-3-14,76.6,56.1,39.4,37.9,33.2,30.2,73,47,22,30.34,30.19,12,4,19,0.00
2013-3-15,82.0,58.2,38.1,38.8,32.9,28.6,73,43,16,30.19,29.90,14,5,29,0.00
2013-3-16,53.2,42.4,32.7,36.3,30.3,25.7,84,64,46,30.21,30.01,17,7,25,0.12
2013-3-17,46.4,35.1,30.4,40.5,31.1,26.6,91,86,75,30.16,29.74,16,5,27,0.04
2013-3-18,52.9,39.5,27.9,32.7,23.6,14.4,92,58,27,30.16,29.94,13,5,23,0.00
2013-3-19,54.5,39.1,28.0,25.2,18.4,13.6,62,44,26,30.44,30.15,16,3,28,0.00
2013-3-20,51.6,35.0,19.0,21.7,16.4,9.5,71,49,28,30.51,30.04,16,5,26,0.00
2013-3-21,51.4,38.1,28.0,28.6,21.6,16.5,81,52,38,30.05,29.84,16,8,26,0.00
2013-3-22,54.5,38.7,28.0,33.8,28.8,22.8,86,70,39,30.10,29.96,12,4,23,0.02
2013-3-23,35.1,30.5,25.3,30.6,26.2,18.3,87,84,74,30.30,30.07,15,4,28,0.14
2013-3-24,35.2,23.5,12.9,24.6,15.6,7.2,80,72,56,30.37,30.24,16,6,25,0.04
2013-3-25,36.3,23.9,14.0,19.4,13.8,7.7,77,66,47,30.46,30.37,15,6,26,0.00
2013-3-26,51.4,31.0,12.7,30.0,19.3,6.4,76,63,42,30.45,30.18,15,4,26,0.00
2013-3-27,59.7,42.6,31.6,38.7,30.5,25.9,80,64,39,30.29,30.17,8,2,16,0.00
2013-3-28,69.1,48.8,32.2,39.0,31.8,25.0,78,55,31,30.31,30.19,15,3,24,0.00
2013-3-29,72.3,53.8,38.8,47.8,38.3,29.1,72,58,34,30.29,30.10,20,5,31,0.00
2013-3-30,69.4,53.6,41.7,45.5,39.9,35.2,84,63,33,30.26,30.10,16,4,23,0.02
2013-3-31,71.2,50.3,34.7,41.2,34.0,26.6,87,60,25,30.26,30.02,20,5,34,0.00